Location: Équennes
(49.7375°N, 1.9622°E)
Time: 02:17:54
(UTC+00:00)

Cosmos 1697 Rocket - Pass Details

Date: 28 January 2023
Orbit: 834 x 841 km, 71.0° (Epoch: 31 March)

Event Time Altitude Azimuth Distance (km) Brightness Sun altitude
Rises 18:41:29 0° 237° (WSW) 3,389 6.9 -19.5°
Reaches altitude 10° 18:44:08 10° 246° (WSW) 2,458 6.2 -20.0°
Maximum altitude 18:49:16 35° 312° (NW) 1,338 4.1 -20.8°
Drops below altitude 10° 18:54:26 10° 17° (NNE) 2,466 4.9 -21.6°
Enters shadow 18:54:46 - 19° (NNE) 2,581 5.0 -21.7°
